Data supplied by UK-AIR on 24/3/2018
All Data GMT hour ending 
Status: R =Ratified P=Provisional,P*=As supplied
,,Reading London Road,,,,,,,,,,,,,,,,,,,,,,,
Date,time,"PM<sub>10</sub> particulate matter (Hourly measured)",status,unit,"Nitric oxide",status,unit,"Nitrogen dioxide",status,unit,"Nitrogen oxides as nitrogen dioxide",status,unit
 
01-01-2017,01:00,36.724,R,ugm-3 (Ref.eq),1.36122,R,ugm-3,11.32264,R,ugm-3,13.40981,R,ugm-3
01-01-2017,02:00,18.824,R,ugm-3 (Ref.eq),,,,,,,,,
01-01-2017,03:00,28.382,R,ugm-3 (Ref.eq),0.92207,R,ugm-3,11.12023,R,ugm-3,12.53405,R,ugm-3
01-01-2017,04:00,26.549,R,ugm-3 (Ref.eq),1.28441,R,ugm-3,8.54266,R,ugm-3,10.51206,R,ugm-3
01-01-2017,05:00,23.499,R,ugm-3 (Ref.eq),0.88933,R,ugm-3,8.54170,R,ugm-3,9.90532,R,ugm-3
01-01-2017,06:00,24.116,R,ugm-3 (Ref.eq),0.92176,R,ugm-3,8.34041,R,ugm-3,9.75375,R,ugm-3
01-01-2017,07:00,19.633,R,ugm-3 (Ref.eq),3.32561,R,ugm-3,12.08365,R,ugm-3,17.18286,R,ugm-3
01-01-2017,08:00,18.824,R,ugm-3 (Ref.eq),0.82291,R,ugm-3,7.53143,R,ugm-3,8.79320,R,ugm-3
01-01-2017,09:00,25.332,R,ugm-3 (Ref.eq),0.98817,R,ugm-3,8.59238,R,ugm-3,10.10756,R,ugm-3
01-01-2017,10:00,15.366,R,ugm-3 (Ref.eq),1.18525,R,ugm-3,11.37268,R,ugm-3,13.19003,R,ugm-3
01-01-2017,11:00,15.158,R,ugm-3 (Ref.eq),1.28410,R,ugm-3,9.35165,R,ugm-3,11.32057,R,ugm-3
01-01-2017,12:00,13.333,R,ugm-3 (Ref.eq),1.74497,R,ugm-3,8.03872,R,ugm-3,10.71430,R,ugm-3
01-01-2017,13:00,10.891,R,ugm-3 (Ref.eq),5.89412,R,ugm-3,18.80896,R,ugm-3,27.84648,R,ugm-3
01-01-2017,14:00,17.399,R,ugm-3 (Ref.eq),13.00684,R,ugm-3,23.97367,R,ugm-3,43.91722,R,ugm-3
01-01-2017,15:00,1.733,R,ugm-3 (Ref.eq),13.53352,R,ugm-3,19.02220,R,ugm-3,39.77331,R,ugm-3
01-01-2017,16:00,-0.500,R,ugm-3 (Ref.eq),19.98798,R,ugm-3,30.60383,R,ugm-3,61.25164,R,ugm-3
01-01-2017,17:00,1.533,R,ugm-3 (Ref.eq),20.61350,R,ugm-3,30.85771,R,ugm-3,62.46464,R,ugm-3
01-01-2017,18:00,4.991,R,ugm-3 (Ref.eq),22.88515,R,ugm-3,34.24809,R,ugm-3,69.33817,R,ugm-3
01-01-2017,19:00,6.616,R,ugm-3 (Ref.eq),25.22352,R,ugm-3,32.83523,R,ugm-3,71.51077,R,ugm-3
01-01-2017,20:00,8.041,R,ugm-3 (Ref.eq),22.16078,R,ugm-3,29.74846,R,ugm-3,63.72785,R,ugm-3
01-01-2017,21:00,5.391,R,ugm-3 (Ref.eq),19.00012,R,ugm-3,29.79436,R,ugm-3,58.92747,R,ugm-3
01-01-2017,22:00,8.041,R,ugm-3 (Ref.eq),13.33582,R,ugm-3,19.32533,R,ugm-3,39.77331,R,ugm-3
01-01-2017,23:00,17.599,R,ugm-3 (Ref.eq),14.68633,R,ugm-3,18.92228,R,ugm-3,41.44101,R,ugm-3
01-01-2017,24:00,12.516,R,ugm-3 (Ref.eq),16.13507,R,ugm-3,19.83454,R,ugm-3,44.57464,R,ugm-3
02-01-2017,01:00,9.058,R,ugm-3 (Ref.eq),8.78099,R,ugm-3,14.02882,R,ugm-3,27.49282,R,ugm-3
02-01-2017,02:00,7.433,R,ugm-3 (Ref.eq),6.76120,R,ugm-3,16.58584,R,ugm-3,26.95286,R,ugm-3
02-01-2017,03:00,7.633,R,ugm-3 (Ref.eq),5.26860,R,ugm-3,10.62059,R,ugm-3,18.69899,R,ugm-3
02-01-2017,04:00,9.058,R,ugm-3 (Ref.eq),3.45783,R,ugm-3,9.30336,R,ugm-3,14.60528,R,ugm-3
02-01-2017,05:00,10.075,R,ugm-3 (Ref.eq),10.07631,R,ugm-3,16.43937,R,ugm-3,31.88950,R,ugm-3
02-01-2017,06:00,12.924,R,ugm-3 (Ref.eq),21.66685,R,ugm-3,32.83141,R,ugm-3,66.05345,R,ugm-3
02-01-2017,07:00,12.108,R,ugm-3 (Ref.eq),21.53557,R,ugm-3,34.75060,R,ugm-3,67.77135,R,ugm-3
02-01-2017,08:00,13.124,R,ugm-3 (Ref.eq),19.39489,R,ugm-3,32.62486,R,ugm-3,62.36328,R,ugm-3
02-01-2017,09:00,13.733,R,ugm-3 (Ref.eq),33.32380,R,ugm-3,34.66741,R,ugm-3,85.76319,R,ugm-3
02-01-2017,10:00,17.808,R,ugm-3 (Ref.eq),27.26504,R,ugm-3,29.30093,R,ugm-3,71.10675,R,ugm-3
02-01-2017,11:00,16.991,R,ugm-3 (Ref.eq),26.93576,R,ugm-3,31.37265,R,ugm-3,72.67357,R,ugm-3
02-01-2017,12:00,20.449,R,ugm-3 (Ref.eq),38.85558,R,ugm-3,37.45440,R,ugm-3,97.03212,R,ugm-3
02-01-2017,13:00,11.091,R,ugm-3 (Ref.eq),45.67207,R,ugm-3,39.94065,R,ugm-3,109.97018,R,ugm-3
02-01-2017,14:00,10.891,R,ugm-3 (Ref.eq),40.10724,R,ugm-3,40.99396,R,ugm-3,102.49088,R,ugm-3
02-01-2017,15:00,16.383,R,ugm-3 (Ref.eq),37.90077,R,ugm-3,40.93993,R,ugm-3,99.05363,R,ugm-3
02-01-2017,16:00,19.633,R,ugm-3 (Ref.eq),49.36003,R,ugm-3,50.96334,R,ugm-3,126.64766,R,ugm-3
02-01-2017,17:00,19.433,R,ugm-3 (Ref.eq),63.65128,R,ugm-3,64.78116,R,ugm-3,162.37842,R,ugm-3
02-01-2017,18:00,23.707,R,ugm-3 (Ref.eq),54.33270,R,ugm-3,63.14979,R,ugm-3,146.45877,R,ugm-3
02-01-2017,19:00,21.874,R,ugm-3 (Ref.eq),55.58405,R,ugm-3,63.96022,R,ugm-3,149.18791,R,ugm-3
02-01-2017,20:00,27.774,R,ugm-3 (Ref.eq),38.32891,R,ugm-3,56.55693,R,ugm-3,115.32710,R,ugm-3
02-01-2017,21:00,31.232,R,ugm-3 (Ref.eq),68.65638,R,ugm-3,55.28703,R,ugm-3,160.55868,R,ugm-3
02-01-2017,22:00,26.149,R,ugm-3 (Ref.eq),34.44357,R,ugm-3,44.67409,R,ugm-3,97.48682,R,ugm-3
02-01-2017,23:00,26.957,R,ugm-3 (Ref.eq),17.61718,R,ugm-3,43.63895,R,ugm-3,70.65158,R,ugm-3
02-01-2017,24:00,22.891,R,ugm-3 (Ref.eq),22.62228,R,ugm-3,41.01834,R,ugm-3,75.70536,R,ugm-3
03-01-2017,01:00,19.024,R,ugm-3 (Ref.eq),32.88465,R,ugm-3,43.10647,R,ugm-3,93.52890,R,ugm-3
03-01-2017,02:00,10.891,R,ugm-3 (Ref.eq),15.67399,R,ugm-3,39.24068,R,ugm-3,63.27379,R,ugm-3
03-01-2017,03:00,10.683,R,ugm-3 (Ref.eq),5.10395,R,ugm-3,30.98680,R,ugm-3,38.81275,R,ugm-3
03-01-2017,04:00,14.958,R,ugm-3 (Ref.eq),7.44170,R,ugm-3,30.88974,R,ugm-3,42.30020,R,ugm-3
03-01-2017,05:00,11.291,R,ugm-3 (Ref.eq),5.03816,R,ugm-3,32.04824,R,ugm-3,39.77331,R,ugm-3
03-01-2017,06:00,11.091,R,ugm-3 (Ref.eq),12.05204,R,ugm-3,30.74439,R,ugm-3,49.22393,R,ugm-3
03-01-2017,07:00,12.516,R,ugm-3 (Ref.eq),8.13333,R,ugm-3,35.84312,R,ugm-3,48.31405,R,ugm-3
03-01-2017,08:00,8.241,R,ugm-3 (Ref.eq),30.52486,R,ugm-3,48.35804,R,ugm-3,95.16218,R,ugm-3
03-01-2017,09:00,8.241,R,ugm-3 (Ref.eq),34.73949,R,ugm-3,52.25619,R,ugm-3,105.52267,R,ugm-3
03-01-2017,10:00,13.733,R,ugm-3 (Ref.eq),74.48470,R,ugm-3,68.18302,R,ugm-3,182.39130,R,ugm-3
03-01-2017,11:00,14.549,R,ugm-3 (Ref.eq),92.66161,R,ugm-3,73.66663,R,ugm-3,215.74578,R,ugm-3
03-01-2017,12:00,16.583,R,ugm-3 (Ref.eq),53.50917,R,ugm-3,56.88253,R,ugm-3,138.92878,R,ugm-3
03-01-2017,13:00,18.216,R,ugm-3 (Ref.eq),79.35822,R,ugm-3,74.40581,R,ugm-3,196.08671,R,ugm-3
03-01-2017,14:00,16.991,R,ugm-3 (Ref.eq),52.68595,R,ugm-3,56.98246,R,ugm-3,137.76646,R,ugm-3
03-01-2017,15:00,17.399,R,ugm-3 (Ref.eq),42.67575,R,ugm-3,56.51246,R,ugm-3,121.94769,R,ugm-3
03-01-2017,16:00,17.599,R,ugm-3 (Ref.eq),36.88017,R,ugm-3,56.45413,R,ugm-3,113.00293,R,ugm-3
03-01-2017,17:00,15.566,R,ugm-3 (Ref.eq),40.56812,R,ugm-3,62.67502,R,ugm-3,124.87860,R,ugm-3
03-01-2017,18:00,20.249,R,ugm-3 (Ref.eq),84.16593,R,ugm-3,77.19185,R,ugm-3,206.24448,R,ugm-3
03-01-2017,19:00,19.433,R,ugm-3 (Ref.eq),58.21804,R,ugm-3,69.62456,R,ugm-3,158.89098,R,ugm-3
03-01-2017,20:00,16.583,R,ugm-3 (Ref.eq),28.22016,R,ugm-3,59.52369,R,ugm-3,102.79401,R,ugm-3
03-01-2017,21:00,15.366,R,ugm-3 (Ref.eq),30.88720,R,ugm-3,59.98269,R,ugm-3,107.34241,R,ugm-3
03-01-2017,22:00,15.566,R,ugm-3 (Ref.eq),23.14864,R,ugm-3,50.16774,R,ugm-3,85.66183,R,ugm-3
03-01-2017,23:00,8.850,R,ugm-3 (Ref.eq),13.56657,R,ugm-3,33.62701,R,ugm-3,54.42879,R,ugm-3
03-01-2017,24:00,8.450,R,ugm-3 (Ref.eq),10.80037,R,ugm-3,25.79054,R,ugm-3,42.35088,R,ugm-3
04-01-2017,01:00,8.241,R,ugm-3 (Ref.eq),6.19077,R,ugm-3,21.57172,R,ugm-3,31.06410,R,ugm-3
04-01-2017,02:00,6.616,R,ugm-3 (Ref.eq),5.53178,R,ugm-3,23.25536,R,ugm-3,31.73730,R,ugm-3
04-01-2017,03:00,6.416,R,ugm-3 (Ref.eq),3.49026,R,ugm-3,17.18859,R,ugm-3,22.54025,R,ugm-3
04-01-2017,04:00,6.208,R,ugm-3 (Ref.eq),12.48017,R,ugm-3,27.71213,R,ugm-3,46.84812,R,ugm-3
04-01-2017,05:00,7.433,R,ugm-3 (Ref.eq),9.71397,R,ugm-3,25.63658,R,ugm-3,40.53113,R,ugm-3
04-01-2017,06:00,8.850,R,ugm-3 (Ref.eq),17.22210,R,ugm-3,34.08697,R,ugm-3,60.49381,R,ugm-3
04-01-2017,07:00,14.549,R,ugm-3 (Ref.eq),38.46081,R,ugm-3,43.31621,R,ugm-3,102.28863,R,ugm-3
04-01-2017,08:00,12.108,R,ugm-3 (Ref.eq),71.19183,R,ugm-3,66.35849,R,ugm-3,175.51778,R,ugm-3
04-01-2017,09:00,11.291,R,ugm-3 (Ref.eq),44.94770,R,ugm-3,50.14862,R,ugm-3,119.06747,R,ugm-3
04-01-2017,10:00,10.891,R,ugm-3 (Ref.eq),36.09000,R,ugm-3,40.48237,R,ugm-3,95.81960,R,ugm-3
04-01-2017,11:00,15.974,R,ugm-3 (Ref.eq),30.72256,R,ugm-3,35.67386,R,ugm-3,82.78113,R,ugm-3
04-01-2017,12:00,13.333,R,ugm-3 (Ref.eq),21.93034,R,ugm-3,32.78025,R,ugm-3,66.40630,R,ugm-3
04-01-2017,13:00,13.333,R,ugm-3 (Ref.eq),23.67563,R,ugm-3,34.14769,R,ugm-3,70.44981,R,ugm-3
04-01-2017,14:00,12.716,R,ugm-3 (Ref.eq),30.92026,R,ugm-3,35.16801,R,ugm-3,82.57840,R,ugm-3
04-01-2017,15:00,41.198,R,ugm-3 (Ref.eq),50.54527,R,ugm-3,50.66213,R,ugm-3,128.16380,R,ugm-3
04-01-2017,16:00,50.356,R,ugm-3 (Ref.eq),61.11583,R,ugm-3,65.03026,R,ugm-3,158.73989,R,ugm-3
04-01-2017,17:00,50.965,R,ugm-3 (Ref.eq),80.74147,R,ugm-3,73.75030,R,ugm-3,197.55217,R,ugm-3
04-01-2017,18:00,52.190,R,ugm-3 (Ref.eq),102.40832,R,ugm-3,83.88990,R,ugm-3,240.91380,R,ugm-3
04-01-2017,19:00,46.490,R,ugm-3 (Ref.eq),152.75621,R,ugm-3,100.38808,R,ugm-3,334.61100,R,ugm-3
04-01-2017,20:00,25.741,R,ugm-3 (Ref.eq),91.34446,R,ugm-3,80.73953,R,ugm-3,220.79908,R,ugm-3
04-01-2017,21:00,24.724,R,ugm-3 (Ref.eq),51.20416,R,ugm-3,66.02572,R,ugm-3,144.53767,R,ugm-3
04-01-2017,22:00,23.091,R,ugm-3 (Ref.eq),48.86610,R,ugm-3,64.00086,R,ugm-3,138.92783,R,ugm-3
04-01-2017,23:00,20.858,R,ugm-3 (Ref.eq),60.78623,R,ugm-3,67.15218,R,ugm-3,160.35643,R,ugm-3
04-01-2017,24:00,21.058,R,ugm-3 (Ref.eq),26.93576,R,ugm-3,56.59040,R,ugm-3,97.89131,R,ugm-3
05-01-2017,01:00,23.907,R,ugm-3 (Ref.eq),39.20721,R,ugm-3,57.40050,R,ugm-3,117.51739,R,ugm-3
05-01-2017,02:00,19.024,R,ugm-3 (Ref.eq),10.14180,R,ugm-3,42.66851,R,ugm-3,58.21905,R,ugm-3
05-01-2017,03:00,6.816,R,ugm-3 (Ref.eq),14.06050,R,ugm-3,45.90861,R,ugm-3,67.46774,R,ugm-3
05-01-2017,04:00,14.349,R,ugm-3 (Ref.eq),25.71746,R,ugm-3,44.86390,R,ugm-3,84.29678,R,ugm-3
05-01-2017,05:00,10.075,R,ugm-3 (Ref.eq),26.77080,R,ugm-3,47.29182,R,ugm-3,88.33981,R,ugm-3
05-01-2017,06:00,13.333,R,ugm-3 (Ref.eq),36.78101,R,ugm-3,46.29589,R,ugm-3,102.69264,R,ugm-3
05-01-2017,07:00,18.008,R,ugm-3 (Ref.eq),78.69933,R,ugm-3,55.30185,R,ugm-3,175.97247,R,ugm-3
05-01-2017,08:00,15.566,R,ugm-3 (Ref.eq),98.55541,R,ugm-3,55.68387,R,ugm-3,206.80006,R,ugm-3
05-01-2017,09:00,23.499,R,ugm-3 (Ref.eq),176.99187,R,ugm-3,61.05369,R,ugm-3,332.43744,R,ugm-3
05-01-2017,10:00,32.657,R,ugm-3 (Ref.eq),236.00007,R,ugm-3,85.85260,R,ugm-3,447.71434,R,ugm-3
05-01-2017,11:00,35.299,R,ugm-3 (Ref.eq),180.44939,R,ugm-3,94.21166,R,ugm-3,370.89686,R,ugm-3
05-01-2017,12:00,23.907,R,ugm-3 (Ref.eq),143.76692,R,ugm-3,84.85954,R,ugm-3,305.29907,R,ugm-3
05-01-2017,13:00,28.382,R,ugm-3 (Ref.eq),63.78318,R,ugm-3,62.40583,R,ugm-3,160.20534,R,ugm-3
05-01-2017,14:00,34.490,R,ugm-3 (Ref.eq),67.47082,R,ugm-3,64.93798,R,ugm-3,168.39180,R,ugm-3
05-01-2017,15:00,33.674,R,ugm-3 (Ref.eq),48.33942,R,ugm-3,58.79503,R,ugm-3,132.91445,R,ugm-3
05-01-2017,16:00,35.707,R,ugm-3 (Ref.eq),149.26626,R,ugm-3,97.45048,R,ugm-3,326.32223,R,ugm-3
05-01-2017,17:00,28.382,R,ugm-3 (Ref.eq),113.76842,R,ugm-3,66.06683,R,ugm-3,240.50931,R,ugm-3
05-01-2017,18:00,33.674,R,ugm-3 (Ref.eq),239.22684,R,ugm-3,81.56239,R,ugm-3,448.37176,R,ugm-3
05-01-2017,19:00,51.581,R,ugm-3 (Ref.eq),408.80975,R,ugm-3,108.54298,R,ugm-3,735.37585,R,ugm-3
05-01-2017,20:00,60.531,R,ugm-3 (Ref.eq),494.65548,R,ugm-3,125.29361,R,ugm-3,883.75478,R,ugm-3
05-01-2017,21:00,45.273,R,ugm-3 (Ref.eq),309.99085,R,ugm-3,73.83111,R,ugm-3,549.14378,R,ugm-3
05-01-2017,22:00,58.898,R,ugm-3 (Ref.eq),362.67711,R,ugm-3,86.89587,R,ugm-3,642.99302,R,ugm-3
05-01-2017,23:00,63.581,R,ugm-3 (Ref.eq),418.72204,R,ugm-3,90.05915,R,ugm-3,732.09066,R,ugm-3
05-01-2017,24:00,63.372,R,ugm-3 (Ref.eq),423.66072,R,ugm-3,91.63409,R,ugm-3,741.23814,R,ugm-3
06-01-2017,01:00,43.440,R,ugm-3 (Ref.eq),326.47703,R,ugm-3,72.23831,R,ugm-3,572.82945,R,ugm-3
06-01-2017,02:00,46.082,R,ugm-3 (Ref.eq),240.20379,R,ugm-3,52.84110,R,ugm-3,421.14844,R,ugm-3
06-01-2017,03:00,34.282,R,ugm-3 (Ref.eq),156.77376,R,ugm-3,36.51345,R,ugm-3,276.89653,R,ugm-3
06-01-2017,04:00,25.532,R,ugm-3 (Ref.eq),139.78242,R,ugm-3,38.10608,R,ugm-3,252.43613,R,ugm-3
06-01-2017,05:00,27.974,R,ugm-3 (Ref.eq),188.51692,R,ugm-3,41.71497,R,ugm-3,330.77022,R,ugm-3
06-01-2017,06:00,29.807,R,ugm-3 (Ref.eq),184.56548,R,ugm-3,51.05897,R,ugm-3,334.05542,R,ugm-3
06-01-2017,07:00,30.415,R,ugm-3 (Ref.eq),191.01963,R,ugm-3,57.99130,R,ugm-3,350.88398,R,ugm-3
06-01-2017,08:00,30.015,R,ugm-3 (Ref.eq),167.54139,R,ugm-3,57.75463,R,ugm-3,314.64785,R,ugm-3
06-01-2017,09:00,41.815,R,ugm-3 (Ref.eq),224.37680,R,ugm-3,84.36946,R,ugm-3,428.40908,R,ugm-3
06-01-2017,10:00,54.631,R,ugm-3 (Ref.eq),281.17822,R,ugm-3,90.82080,R,ugm-3,521.95472,R,ugm-3
06-01-2017,11:00,,,,,,,,,,,,
06-01-2017,12:00,,,,,,,,,,,,
06-01-2017,13:00,59.714,R,ugm-3 (Ref.eq),,,,,,,,,
06-01-2017,14:00,8.041,R,ugm-3 (Ref.eq),4.39050,R,ugm-3,28.91445,R,ugm-3,35.64645,R,ugm-3
06-01-2017,15:00,17.399,R,ugm-3 (Ref.eq),2.83200,R,ugm-3,27.44629,R,ugm-3,31.78862,R,ugm-3
06-01-2017,16:00,18.416,R,ugm-3 (Ref.eq),5.07090,R,ugm-3,46.85577,R,ugm-3,54.63104,R,ugm-3
06-01-2017,17:00,15.974,R,ugm-3 (Ref.eq),6.22340,R,ugm-3,57.42042,R,ugm-3,66.96284,R,ugm-3
06-01-2017,18:00,20.449,R,ugm-3 (Ref.eq),2.10731,R,ugm-3,40.78741,R,ugm-3,44.01858,R,ugm-3
06-01-2017,19:00,18.216,R,ugm-3 (Ref.eq),1.41569,R,ugm-3,29.21344,R,ugm-3,31.38413,R,ugm-3
06-01-2017,20:00,18.824,R,ugm-3 (Ref.eq),1.41600,R,ugm-3,22.89549,R,ugm-3,25.06666,R,ugm-3
06-01-2017,21:00,18.824,R,ugm-3 (Ref.eq),1.21830,R,ugm-3,21.93494,R,ugm-3,23.80298,R,ugm-3
06-01-2017,22:00,7.433,R,ugm-3 (Ref.eq),1.28441,R,ugm-3,23.29951,R,ugm-3,25.26891,R,ugm-3
06-01-2017,23:00,8.650,R,ugm-3 (Ref.eq),1.15251,R,ugm-3,18.34709,R,ugm-3,20.11424,R,ugm-3
06-01-2017,24:00,6.816,R,ugm-3 (Ref.eq),1.11976,R,ugm-3,15.81972,R,ugm-3,17.53667,R,ugm-3
07-01-2017,01:00,3.975,R,ugm-3 (Ref.eq),0.78954,R,ugm-3,12.73725,R,ugm-3,13.94786,R,ugm-3
07-01-2017,02:00,1.933,R,ugm-3 (Ref.eq),1.49136,R,ugm-3,21.16309,R,ugm-3,23.44980,R,ugm-3
07-01-2017,03:00,1.125,R,ugm-3 (Ref.eq),7.63254,R,ugm-3,22.76353,R,ugm-3,34.46660,R,ugm-3
07-01-2017,04:00,4.175,R,ugm-3 (Ref.eq),8.22407,R,ugm-3,25.84887,R,ugm-3,38.45894,R,ugm-3
07-01-2017,05:00,7.833,R,ugm-3 (Ref.eq),8.15859,R,ugm-3,19.88474,R,ugm-3,32.39440,R,ugm-3
07-01-2017,06:00,8.450,R,ugm-3 (Ref.eq),9.17826,R,ugm-3,18.37243,R,ugm-3,32.44556,R,ugm-3
07-01-2017,07:00,9.258,R,ugm-3 (Ref.eq),33.98300,R,ugm-3,30.62343,R,ugm-3,82.72997,R,ugm-3
07-01-2017,08:00,14.958,R,ugm-3 (Ref.eq),13.52104,R,ugm-3,34.20267,R,ugm-3,54.93465,R,ugm-3
07-01-2017,09:00,11.091,R,ugm-3 (Ref.eq),72.76935,R,ugm-3,57.62267,R,ugm-3,169.20079,R,ugm-3
07-01-2017,10:00,20.449,R,ugm-3 (Ref.eq),29.64053,R,ugm-3,42.33606,R,ugm-3,87.78423,R,ugm-3
07-01-2017,11:00,18.416,R,ugm-3 (Ref.eq),54.01776,R,ugm-3,56.35468,R,ugm-3,139.18075,R,ugm-3
07-01-2017,12:00,23.907,R,ugm-3 (Ref.eq),121.19453,R,ugm-3,76.15958,R,ugm-3,261.98859,R,ugm-3
07-01-2017,13:00,26.957,R,ugm-3 (Ref.eq),53.58993,R,ugm-3,56.05107,R,ugm-3,138.22116,R,ugm-3
07-01-2017,14:00,19.841,R,ugm-3 (Ref.eq),54.01776,R,ugm-3,55.04079,R,ugm-3,137.86687,R,ugm-3
07-01-2017,15:00,14.549,R,ugm-3 (Ref.eq),54.41253,R,ugm-3,55.14311,R,ugm-3,138.57449,R,ugm-3
07-01-2017,16:00,17.199,R,ugm-3 (Ref.eq),75.46695,R,ugm-3,73.29704,R,ugm-3,189.01142,R,ugm-3
07-01-2017,17:00,22.074,R,ugm-3 (Ref.eq),97.87064,R,ugm-3,73.26070,R,ugm-3,223.32693,R,ugm-3
07-01-2017,18:00,26.549,R,ugm-3 (Ref.eq),43.26042,R,ugm-3,46.67074,R,ugm-3,113.00245,R,ugm-3
07-01-2017,19:00,24.116,R,ugm-3 (Ref.eq),61.51871,R,ugm-3,50.86772,R,ugm-3,145.19509,R,ugm-3
07-01-2017,20:00,20.041,R,ugm-3 (Ref.eq),94.41593,R,ugm-3,51.57008,R,ugm-3,196.33916,R,ugm-3
07-01-2017,21:00,26.957,R,ugm-3 (Ref.eq),63.85396,R,ugm-3,45.92295,R,ugm-3,143.83100,R,ugm-3
07-01-2017,22:00,29.199,R,ugm-3 (Ref.eq),65.23597,R,ugm-3,42.74294,R,ugm-3,142.77004,R,ugm-3
07-01-2017,23:00,24.116,R,ugm-3 (Ref.eq),36.48321,R,ugm-3,39.87945,R,ugm-3,95.81960,R,ugm-3
07-01-2017,24:00,23.907,R,ugm-3 (Ref.eq),45.29975,R,ugm-3,41.42140,R,ugm-3,110.88006,R,ugm-3
08-01-2017,01:00,24.116,R,ugm-3 (Ref.eq),34.95932,R,ugm-3,38.30865,R,ugm-3,91.91220,R,ugm-3
08-01-2017,02:00,20.041,R,ugm-3 (Ref.eq),10.26362,R,ugm-3,38.10210,R,ugm-3,53.83942,R,ugm-3
08-01-2017,03:00,21.266,R,ugm-3 (Ref.eq),25.56154,R,ugm-3,31.25599,R,ugm-3,70.44981,R,ugm-3
08-01-2017,04:00,14.749,R,ugm-3 (Ref.eq),12.43496,R,ugm-3,27.12499,R,ugm-3,46.19166,R,ugm-3
08-01-2017,05:00,21.674,R,ugm-3 (Ref.eq),33.81867,R,ugm-3,34.10992,R,ugm-3,85.96448,R,ugm-3
08-01-2017,06:00,22.074,R,ugm-3 (Ref.eq),61.84737,R,ugm-3,36.56700,R,ugm-3,131.39831,R,ugm-3
08-01-2017,07:00,20.658,R,ugm-3 (Ref.eq),105.86396,R,ugm-3,36.59425,R,ugm-3,198.91673,R,ugm-3
08-01-2017,08:00,22.891,R,ugm-3 (Ref.eq),107.83813,R,ugm-3,35.23494,R,ugm-3,200.58443,R,ugm-3
08-01-2017,09:00,26.549,R,ugm-3 (Ref.eq),108.95664,R,ugm-3,48.12519,R,ugm-3,215.18972,R,ugm-3
08-01-2017,10:00,23.907,R,ugm-3 (Ref.eq),114.08897,R,ugm-3,44.04631,R,ugm-3,218.98029,R,ugm-3
08-01-2017,11:00,21.058,R,ugm-3 (Ref.eq),117.67434,R,ugm-3,52.90214,R,ugm-3,233.33361,R,ugm-3
08-01-2017,12:00,16.174,R,ugm-3 (Ref.eq),69.87437,R,ugm-3,44.17062,R,ugm-3,151.30983,R,ugm-3
08-01-2017,13:00,11.500,R,ugm-3 (Ref.eq),16.97544,R,ugm-3,28.85532,R,ugm-3,54.88397,R,ugm-3
08-01-2017,14:00,20.449,R,ugm-3 (Ref.eq),79.71058,R,ugm-3,56.88540,R,ugm-3,179.10658,R,ugm-3
08-01-2017,15:00,7.433,R,ugm-3 (Ref.eq),85.30316,R,ugm-3,59.42807,R,ugm-3,190.22442,R,ugm-3
08-01-2017,16:00,15.158,R,ugm-3 (Ref.eq),51.51786,R,ugm-3,44.26864,R,ugm-3,123.26158,R,ugm-3
08-01-2017,17:00,18.616,R,ugm-3 (Ref.eq),71.12448,R,ugm-3,52.91792,R,ugm-3,161.97393,R,ugm-3
08-01-2017,18:00,20.449,R,ugm-3 (Ref.eq),107.70654,R,ugm-3,68.28629,R,ugm-3,233.43401,R,ugm-3
08-01-2017,19:00,19.024,R,ugm-3 (Ref.eq),29.64084,R,ugm-3,44.30641,R,ugm-3,89.75506,R,ugm-3
08-01-2017,20:00,20.858,R,ugm-3 (Ref.eq),33.22651,R,ugm-3,38.70757,R,ugm-3,89.65418,R,ugm-3
08-01-2017,21:00,14.749,R,ugm-3 (Ref.eq),28.65360,R,ugm-3,37.43097,R,ugm-3,81.36588,R,ugm-3
08-01-2017,22:00,13.533,R,ugm-3 (Ref.eq),14.93579,R,ugm-3,31.93253,R,ugm-3,54.83377,R,ugm-3
08-01-2017,23:00,16.583,R,ugm-3 (Ref.eq),11.90922,R,ugm-3,29.54813,R,ugm-3,47.80868,R,ugm-3
08-01-2017,24:00,13.333,R,ugm-3 (Ref.eq),23.29146,R,ugm-3,32.61434,R,ugm-3,68.32741,R,ugm-3
09-01-2017,01:00,25.741,R,ugm-3 (Ref.eq),6.14087,R,ugm-3,27.64582,R,ugm-3,37.06170,R,ugm-3
09-01-2017,02:00,17.399,R,ugm-3 (Ref.eq),1.35997,R,ugm-3,20.28589,R,ugm-3,22.37115,R,ugm-3
09-01-2017,03:00,20.858,R,ugm-3 (Ref.eq),1.51360,R,ugm-3,15.56918,R,ugm-3,17.89000,R,ugm-3
09-01-2017,04:00,15.974,R,ugm-3 (Ref.eq),1.08546,R,ugm-3,12.13242,R,ugm-3,13.79678,R,ugm-3
09-01-2017,05:00,14.349,R,ugm-3 (Ref.eq),0.88839,R,ugm-3,8.18933,R,ugm-3,9.55150,R,ugm-3
09-01-2017,06:00,3.767,R,ugm-3 (Ref.eq),0.65764,R,ugm-3,7.53286,R,ugm-3,8.54123,R,ugm-3
09-01-2017,07:00,3.567,R,ugm-3 (Ref.eq),2.13850,R,ugm-3,11.78196,R,ugm-3,15.06094,R,ugm-3
09-01-2017,08:00,16.174,R,ugm-3 (Ref.eq),2.66486,R,ugm-3,20.47523,R,ugm-3,24.56128,R,ugm-3
09-01-2017,09:00,8.241,R,ugm-3 (Ref.eq),1.80952,R,ugm-3,22.99973,R,ugm-3,25.77428,R,ugm-3
09-01-2017,10:00,8.850,R,ugm-3 (Ref.eq),2.46716,R,ugm-3,16.68465,R,ugm-3,20.46758,R,ugm-3
09-01-2017,11:00,16.383,R,ugm-3 (Ref.eq),4.11235,R,ugm-3,13.75757,R,ugm-3,20.06308,R,ugm-3
09-01-2017,12:00,19.024,R,ugm-3 (Ref.eq),1.57908,R,ugm-3,12.48767,R,ugm-3,14.90889,R,ugm-3
09-01-2017,13:00,13.733,R,ugm-3 (Ref.eq),1.64488,R,ugm-3,14.20605,R,ugm-3,16.72816,R,ugm-3
09-01-2017,14:00,11.500,R,ugm-3 (Ref.eq),1.67762,R,ugm-3,14.45898,R,ugm-3,17.03129,R,ugm-3
09-01-2017,15:00,11.908,R,ugm-3 (Ref.eq),1.15126,R,ugm-3,10.86969,R,ugm-3,12.63493,R,ugm-3
09-01-2017,16:00,10.483,R,ugm-3 (Ref.eq),1.31621,R,ugm-3,10.96962,R,ugm-3,12.98779,R,ugm-3
09-01-2017,17:00,6.616,R,ugm-3 (Ref.eq),3.32250,R,ugm-3,17.09201,R,ugm-3,22.18643,R,ugm-3
09-01-2017,18:00,5.391,R,ugm-3 (Ref.eq),17.36990,R,ugm-3,30.01956,R,ugm-3,56.65303,R,ugm-3
09-01-2017,19:00,20.041,R,ugm-3 (Ref.eq),56.94548,R,ugm-3,68.23991,R,ugm-3,155.55510,R,ugm-3
09-01-2017,20:00,17.599,R,ugm-3 (Ref.eq),34.18070,R,ugm-3,60.13808,R,ugm-3,112.54776,R,ugm-3
09-01-2017,21:00,17.599,R,ugm-3 (Ref.eq),2.49990,R,ugm-3,38.76972,R,ugm-3,42.60285,R,ugm-3
09-01-2017,22:00,9.666,R,ugm-3 (Ref.eq),9.67219,R,ugm-3,39.59879,R,ugm-3,54.42927,R,ugm-3
09-01-2017,23:00,17.808,R,ugm-3 (Ref.eq),9.27711,R,ugm-3,35.80774,R,ugm-3,50.03243,R,ugm-3
09-01-2017,24:00,13.333,R,ugm-3 (Ref.eq),11.67816,R,ugm-3,33.59163,R,ugm-3,51.49789,R,ugm-3
10-01-2017,01:00,22.891,R,ugm-3 (Ref.eq),8.72861,R,ugm-3,28.19216,R,ugm-3,41.57584,R,ugm-3
10-01-2017,02:00,16.991,R,ugm-3 (Ref.eq),4.95677,R,ugm-3,23.59834,R,ugm-3,31.19861,R,ugm-3
10-01-2017,03:00,4.783,R,ugm-3 (Ref.eq),3.81611,R,ugm-3,15.98133,R,ugm-3,21.83262,R,ugm-3
10-01-2017,04:00,8.241,R,ugm-3 (Ref.eq),1.51360,R,ugm-3,11.12214,R,ugm-3,13.44296,R,ugm-3
10-01-2017,05:00,10.891,R,ugm-3 (Ref.eq),1.51329,R,ugm-3,11.32535,R,ugm-3,13.64569,R,ugm-3
10-01-2017,06:00,13.941,R,ugm-3 (Ref.eq),16.05431,R,ugm-3,26.12379,R,ugm-3,50.74006,R,ugm-3
10-01-2017,07:00,14.958,R,ugm-3 (Ref.eq),9.50692,R,ugm-3,26.45992,R,ugm-3,41.03699,R,ugm-3
10-01-2017,08:00,16.383,R,ugm-3 (Ref.eq),12.30368,R,ugm-3,34.65402,R,ugm-3,53.51940,R,ugm-3
10-01-2017,09:00,17.399,R,ugm-3 (Ref.eq),30.06835,R,ugm-3,53.75798,R,ugm-3,99.86214,R,ugm-3
10-01-2017,10:00,22.891,R,ugm-3 (Ref.eq),135.83378,R,ugm-3,81.00298,R,ugm-3,289.27853,R,ugm-3
10-01-2017,11:00,24.724,R,ugm-3 (Ref.eq),68.19644,R,ugm-3,61.85455,R,ugm-3,166.42097,R,ugm-3
10-01-2017,12:00,28.182,R,ugm-3 (Ref.eq),52.93229,R,ugm-3,59.98987,R,ugm-3,141.15158,R,ugm-3
10-01-2017,13:00,28.791,R,ugm-3 (Ref.eq),60.30103,R,ugm-3,60.66928,R,ugm-3,153.12957,R,ugm-3
10-01-2017,14:00,35.915,R,ugm-3 (Ref.eq),44.57632,R,ugm-3,52.33508,R,ugm-3,120.68449,R,ugm-3
10-01-2017,15:00,31.640,R,ugm-3 (Ref.eq),43.02998,R,ugm-3,53.89712,R,ugm-3,119.87550,R,ugm-3
10-01-2017,16:00,37.132,R,ugm-3 (Ref.eq),55.16901,R,ugm-3,62.37284,R,ugm-3,146.96415,R,ugm-3
10-01-2017,17:00,20.658,R,ugm-3 (Ref.eq),24.11374,R,ugm-3,52.47804,R,ugm-3,89.45193,R,ugm-3
10-01-2017,18:00,19.024,R,ugm-3 (Ref.eq),28.45653,R,ugm-3,60.22223,R,ugm-3,103.85497,R,ugm-3
10-01-2017,19:00,15.566,R,ugm-3 (Ref.eq),18.98172,R,ugm-3,54.73718,R,ugm-3,83.84209,R,ugm-3
10-01-2017,20:00,16.383,R,ugm-3 (Ref.eq),19.60724,R,ugm-3,51.09961,R,ugm-3,81.16363,R,ugm-3
10-01-2017,21:00,16.383,R,ugm-3 (Ref.eq),11.90891,R,ugm-3,39.65569,R,ugm-3,57.91576,R,ugm-3
10-01-2017,22:00,20.449,R,ugm-3 (Ref.eq),10.03391,R,ugm-3,36.71952,R,ugm-3,52.10463,R,ugm-3
10-01-2017,23:00,20.449,R,ugm-3 (Ref.eq),16.08674,R,ugm-3,40.57847,R,ugm-3,65.24446,R,ugm-3
10-01-2017,24:00,24.724,R,ugm-3 (Ref.eq),4.14478,R,ugm-3,22.50200,R,ugm-3,28.85723,R,ugm-3
11-01-2017,01:00,15.158,R,ugm-3 (Ref.eq),13.37812,R,ugm-3,26.04953,R,ugm-3,46.56236,R,ugm-3
11-01-2017,02:00,27.974,R,ugm-3 (Ref.eq),3.42134,R,ugm-3,22.31441,R,ugm-3,27.56040,R,ugm-3
11-01-2017,03:00,28.182,R,ugm-3 (Ref.eq),1.15126,R,ugm-3,11.52616,R,ugm-3,13.29140,R,ugm-3
11-01-2017,04:00,25.132,R,ugm-3 (Ref.eq),1.11820,R,ugm-3,9.60601,R,ugm-3,11.32057,R,ugm-3
11-01-2017,05:00,21.058,R,ugm-3 (Ref.eq),11.54719,R,ugm-3,20.65309,R,ugm-3,38.35853,R,ugm-3
11-01-2017,06:00,16.791,R,ugm-3 (Ref.eq),27.99596,R,ugm-3,32.77929,R,ugm-3,75.70583,R,ugm-3
11-01-2017,07:00,21.466,R,ugm-3 (Ref.eq),50.46482,R,ugm-3,51.94828,R,ugm-3,129.32660,R,ugm-3
11-01-2017,08:00,9.466,R,ugm-3 (Ref.eq),18.19218,R,ugm-3,35.58111,R,ugm-3,63.47540,R,ugm-3
11-01-2017,09:00,13.124,R,ugm-3 (Ref.eq),29.96981,R,ugm-3,48.19883,R,ugm-3,94.15190,R,ugm-3
11-01-2017,10:00,21.266,R,ugm-3 (Ref.eq),62.90009,R,ugm-3,60.62577,R,ugm-3,157.07123,R,ugm-3
11-01-2017,11:00,30.824,R,ugm-3 (Ref.eq),39.74023,R,ugm-3,46.96383,R,ugm-3,107.89799,R,ugm-3
11-01-2017,12:00,28.999,R,ugm-3 (Ref.eq),24.77169,R,ugm-3,32.71953,R,ugm-3,70.70226,R,ugm-3
11-01-2017,13:00,22.074,R,ugm-3 (Ref.eq),11.28370,R,ugm-3,15.19433,R,ugm-3,32.49577,R,ugm-3
11-01-2017,14:00,34.082,R,ugm-3 (Ref.eq),15.82356,R,ugm-3,20.96913,R,ugm-3,45.23158,R,ugm-3
11-01-2017,15:00,26.549,R,ugm-3 (Ref.eq),17.27105,R,ugm-3,24.00522,R,ugm-3,50.48713,R,ugm-3
11-01-2017,16:00,33.674,R,ugm-3 (Ref.eq),20.33068,R,ugm-3,31.03892,R,ugm-3,62.21219,R,ugm-3
11-01-2017,17:00,35.299,R,ugm-3 (Ref.eq),33.65403,R,ugm-3,58.82276,R,ugm-3,110.42488,R,ugm-3
11-01-2017,18:00,29.607,R,ugm-3 (Ref.eq),45.49745,R,ugm-3,66.03337,R,ugm-3,135.79515,R,ugm-3
11-01-2017,19:00,28.182,R,ugm-3 (Ref.eq),35.72673,R,ugm-3,62.26526,R,ugm-3,117.04548,R,ugm-3